Location: Cisewo
(53.3833°N, 14.9000°E)
Time: 03:06:16
(UTC+00:00)

USA 229 - Pass Details

Date: 30 July 2021
Orbit: 956 x 1256 km, 63.5° (Epoch: 08 August)

Event Time Altitude Azimuth Distance (km) Brightness Sun altitude
Rises 00:05:33 0° 308° (NW) 4,004 7.0 -17.0°
Reaches altitude 10° 00:09:19 10° 289° (WNW) 3,094 6.2 -16.9°
Maximum altitude 00:13:38 17° 253° (WSW) 2,666 5.5 -16.7°
Enters shadow 00:15:47 15° 234° (SW) 2,806 5.4 -16.6°
